CW4517 Weather Reports


time (UTC)temp
F
wind
direction
speed
knots
gust
knots
rain 1hr
in
rain 24hr
in
rain mn
in
humidity
%
barometer
mb
20260902113155 74 227 2.6 5.2 0.00 0.00 0.00 84 1011.9
20260902112910 74 225 2.6 5.2 0.00 0.00 0.00 84 1011.9
20260902112138 74 234 1.7 4.3 0.00 0.00 0.00 84 1011.9
20260902111638 74 218 1.7 4.3 0.00 0.00 0.00 84 1011.9
20260902111131 74 208 1.7 4.3 0.00 0.00 0.00 84 1011.8
20260902110626 74 234 0.9 4.3 0.00 0.00 0.00 84 1011.8
20260902110120 74 213 0.9 4.3 0.00 0.00 0.00 84 1011.8
20260902105609 74 215 0.9 1.7 0.00 0.00 0.00 84 1011.8
20260902105328 74 198 0.9 4.3 0.00 0.00 0.00 84 1011.8
20260902104602 74 229 0.9 4.3 0.00 0.00 0.00 84 1011.8
20260902104055 75 182 0.9 4.3 0.00 0.00 0.00 84 1011.8
20260902103549 75 211 0.9 4.3 0.00 0.00 0.00 84 1011.8
20260902103038 75 217 0.9 4.3 0.00 0.00 0.00 84 1011.8
20260902102538 75 203 0.9 4.3 0.00 0.00 0.00 84 1011.9
20260902102033 75 182 0.9 3.5 0.00 0.00 0.00 84 1011.9
20260902101525 75 223 0.9 2.6 0.00 0.00 0.00 84 1011.9
20260902101019 75 197 0.9 2.6 0.00 0.00 0.00 84 1011.8
20260902100513 75 190 0.9 2.6 0.00 0.00 0.00 84 1011.8
20260902100007 75 230 0.0 2.6 0.00 0.00 0.00 84 1011.8
20260902095456 75 190 0.9 2.6 0.00 0.00 0.00 84 1011.6
20260902094955 75 227 0.0 2.6 0.00 0.00 0.00 84 1011.6
20260902094450 75 170 0.0 0.9 0.00 0.00 0.00 84 1011.6
20260902093939 75 196 0.0 0.0 0.00 0.00 0.00 84 1011.6
20260902093438 75 190 0.0 0.0 0.00 0.00 0.00 84 1011.6
20260902092928 75 190 0.0 0.0 0.00 0.00 0.00 84 1011.6
20260902092425 75 183 0.0 0.9 0.00 0.00 0.00 84 1011.6
20260902091920 75 175 0.0 0.9 0.00 0.00 0.00 84 1011.6
20260902091413 75 204 0.0 0.9 0.00 0.00 0.00 84 1011.7
20260902090908 75 219 0.9 2.6 0.00 0.00 0.00 84 1011.7
20260902090400 75 219 0.9 2.6 0.00 0.00 0.00 84 1011.7
20260902085855 75 223 1.7 2.6 0.00 0.00 0.00 84 1011.6
20260902085607 75 225 1.7 2.6 0.00 0.00 0.00 84 1011.6
20260902084844 75 225 1.7 2.6 0.00 0.00 0.00 84 1011.6
20260902084338 76 234 1.7 3.5 0.00 0.00 0.00 83 1011.4
20260902083831 76 227 1.7 3.5 0.00 0.00 0.00 83 1011.4
20260902083326 76 223 1.7 2.6 0.00 0.00 0.00 83 1011.4
20260902082814 76 223 1.7 3.5 0.00 0.00 0.00 83 1011.3
20260902082312 76 232 1.7 3.5 0.00 0.00 0.00 83 1011.3
20260902081801 76 228 1.7 4.3 0.00 0.00 0.00 83 1011.3
20260902081249 76 225 1.7 4.3 0.00 0.00 0.00 83 1011.3
20260902081229 76 229 1.7 4.3 0.00 0.00 0.00 83 1011.3
20260902080238 76 207 1.7 4.3 0.00 0.00 0.00 83 1011.3
20260902075739 76 211 1.7 3.5 0.00 0.00 0.00 83 1011.3
20260902075238 76 218 1.7 3.5 0.00 0.00 0.00 83 1011.3
20260902074739 76 138 1.7 4.3 0.00 0.00 0.00 83 1011.3
20260902074239 76 198 1.7 4.3 0.00 0.00 0.00 83 1011.2
20260902073738 76 200 1.7 4.3 0.00 0.00 0.00 83 1011.2
20260902073239 76 181 1.7 4.3 0.00 0.00 0.00 83 1011.2
20260902072740 76 176 0.9 2.6 0.00 0.00 0.00 84 1011.3
20260902072232 76 209 0.9 2.6 0.00 0.00 0.00 84 1011.3
20260902071728 76 204 0.9 2.6 0.00 0.00 0.00 84 1011.3
20260902071217 76 191 0.9 3.5 0.00 0.00 0.00 84 1011.4
20260902070715 76 208 0.9 3.5 0.00 0.00 0.00 83 1011.4
20260902070424 76 215 0.0 1.7 0.00 0.00 0.00 83 1011.4
20260902065702 76 175 0.0 1.7 0.00 0.00 0.00 84 1011.4
20260902065158 76 173 0.9 1.7 0.00 0.00 0.00 84 1011.4
20260902064916 76 153 0.9 2.6 0.00 0.00 0.00 83 1011.4
20260902064144 76 254 0.9 2.6 0.00 0.00 0.00 83 1011.4
20260902063900 77 254 0.9 2.6 0.00 0.00 0.00 83 1011.4
20260902063132 77 178 0.9 2.6 0.00 0.00 0.00 83 1011.4
20260902062626 77 179 0.9 2.6 0.00 0.00 0.00 83 1011.3
20260902062121 77 204 0.9 2.6 0.00 0.00 0.00 82 1011.3
20260902061615 77 232 0.9 3.5 0.00 0.00 0.00 82 1011.3
20260902061104 77 222 1.7 3.5 0.00 0.00 0.00 82 1011.4
20260902060604 77 220 1.7 4.3 0.00 0.00 0.00 82 1011.4
20260902060058 77 178 1.7 4.3 0.00 0.00 0.00 82 1011.4
20260902055813 78 183 1.7 3.5 0.00 0.00 0.00 82 1011.4
20260902055047 78 182 1.7 3.5 0.00 0.00 0.00 82 1011.4
20260902054538 78 192 1.7 3.5 0.00 0.00 0.00 82 1011.4
20260902054255 78 213 0.9 3.5 0.00 0.00 0.00 82 1011.4
20260902053521 78 219 0.9 3.5 0.00 0.00 0.00 81 1011.4
20260902053021 78 169 1.7 3.5 0.00 0.00 0.00 81 1011.4
20260902052600 78 229 1.7 3.5 0.00 0.00 0.00 81 1011.4
20260902051729 78 200 0.9 3.5 0.00 0.00 0.00 82 1011.4
20260902051216 78 208 0.9 3.5 0.00 0.00 0.00 82 1011.4
20260902050450 78 197 0.9 3.5 0.00 0.00 0.00 82 1011.4
20260902045942 78 186 0.9 4.3 0.00 0.00 0.00 82 1011.5
20260902045441 78 223 1.7 4.3 0.00 0.00 0.00 82 1011.5
20260902044935 78 225 0.9 2.6 0.00 0.00 0.00 82 1011.5
20260902044428 78 197 0.9 3.5 0.00 0.00 0.00 82 1011.7
20260902043923 78 255 0.9 3.5 0.00 0.00 0.00 82 1011.7
20260902043417 78 185 0.9 2.6 0.00 0.00 0.00 82 1011.7
20260902042912 78 246 0.9 2.6 0.00 0.00 0.00 82 1011.6
20260902042401 78 181 0.9 1.7 0.00 0.00 0.00 82 1011.6
20260902041858 78 184 0.9 1.7 0.00 0.00 0.00 82 1011.6
20260902041352 78 213 0.9 2.6 0.00 0.00 0.00 82 1011.7
20260902041105 79 207 0.0 2.6 0.00 0.00 0.00 82 1011.7
20260902040341 79 192 0.0 1.7 0.00 0.00 0.00 82 1011.7
20260902035831 79 186 0.0 1.7 0.00 0.00 0.00 82 1011.6
20260902035329 79 223 0.0 1.7 0.00 0.00 0.00 81 1011.6
20260902034822 79 223 0.9 2.6 0.00 0.00 0.00 81 1011.6
20260902034541 79 223 0.9 2.6 0.00 0.00 0.00 81 1011.6
20260902033810 79 223 0.9 2.6 0.00 0.00 0.00 81 1011.6
20260902033305 80 219 1.7 3.5 0.00 0.00 0.00 81 1011.6
20260902032758 80 218 1.7 3.5 0.00 0.00 0.00 81 1011.7
20260902032512 80 225 1.7 3.5 0.00 0.00 0.00 81 1011.7
20260902031746 80 225 1.7 3.5 0.00 0.00 0.00 81 1011.7
20260902031240 80 227 2.6 4.3 0.00 0.00 0.00 81 1011.6
20260902030956 80 234 1.7 4.3 0.00 0.00 0.00 81 1011.6
20260902030229 80 208 1.7 4.3 0.00 0.00 0.00 81 1011.6
20260902025723 80 232 1.7 4.3 0.00 0.00 0.00 81 1011.6
20260902025215 80 234 1.7 4.3 0.00 0.00 0.00 80 1011.6
20260902024713 80 232 1.7 5.2 0.00 0.00 0.00 80 1011.6
20260902024209 80 229 1.7 5.2 0.00 0.00 0.00 80 1011.5
20260902024200 81 225 1.7 3.5 0.00 0.00 0.00 80 1011.5
20260902023209 81 217 1.7 4.3 0.00 0.00 0.00 80 1011.5
20260902022710 81 197 1.7 4.3 0.00 0.00 0.00 80 1011.5
20260902022210 81 224 2.6 4.3 0.00 0.00 0.00 80 1011.5
20260902021710 82 232 2.6 5.2 0.00 0.00 0.00 80 1011.5
20260902021210 82 225 3.5 5.2 0.00 0.00 0.00 79 1011.4
20260902020710 82 221 2.6 5.2 0.00 0.00 0.00 79 1011.4
20260902020205 82 230 2.6 5.2 0.00 0.00 0.00 80 1011.4
20260902015651 82 223 2.6 4.3 0.00 0.00 0.00 80 1011.3
20260902015144 82 219 2.6 4.3 0.00 0.00 0.00 80 1011.3
20260902014637 82 236 1.7 3.5 0.00 0.00 0.00 80 1011.3
20260902014127 82 246 1.7 4.3 0.00 0.00 0.00 80 1011.0
20260902013625 82 209 0.9 4.3 0.00 0.00 0.00 80 1011.0
20260902013119 83 216 0.9 3.5 0.00 0.00 0.00 80 1011.0
20260902012615 83 219 1.7 5.2 0.00 0.00 0.00 80 1010.9
20260902012108 83 221 1.7 5.2 0.00 0.00 0.00 79 1010.9
20260902011603 83 226 0.9 4.3 0.00 0.00 0.00 79 1010.9
20260902011056 84 217 0.9 2.6 0.00 0.00 0.00 79 1010.8
20260902010545 84 231 0.9 2.6 0.00 0.00 0.00 79 1010.8
20260902010043 84 232 0.9 2.6 0.00 0.00 0.00 79 1010.8
20260902005539 85 243 0.0 1.7 0.00 0.00 0.00 78 1010.7
20260902005033 85 211 0.0 1.7 0.00 0.00 0.00 78 1010.7
20260902004526 85 183 0.0 0.0 0.00 0.00 0.00 78 1010.7
20260902004021 86 184 0.0 0.0 0.00 0.00 0.00 77 1010.7
20260902003514 86 204 0.0 0.0 0.00 0.00 0.00 77 1010.7
20260902003226 86 202 0.0 0.0 0.00 0.00 0.00 77 1010.7
20260902002501 87 171 0.0 0.9 0.00 0.00 0.00 76 1010.8
20260902001956 87 205 0.9 4.3 0.00 0.00 0.00 76 1010.8
20260902001450 87 176 0.9 4.3 0.00 0.00 0.00 75 1010.8
20260902000943 88 213 0.9 2.6 0.00 0.03 0.00 74 1010.8
20260902000655 88 213 0.9 2.6 0.00 0.04 0.00 74 1010.8
20260901235931 89 240 0.0 2.6 0.00 0.04 0.00 74 1010.8
20260901235426 89 213 0.0 2.6 0.00 0.04 0.00 74 1010.8
20260901234919 89 234 0.9 3.5 0.00 0.04 0.00 73 1010.8
20260901234904 90 221 0.9 3.5 0.00 0.04 0.00 72 1010.9
20260901233903 90 224 0.0 2.6 0.00 0.04 0.00 71 1010.9
20260901233400 91 198 0.9 2.6 0.00 0.04 0.00 70 1010.9
20260901232855 91 205 1.7 2.6 0.00 0.04 0.00 70 1010.9
20260901232349 91 209 0.9 4.3 0.00 0.04 0.00 69 1010.9
20260901231844 91 196 0.0 4.3 0.00 0.04 0.00 70 1010.9
20260901231334 91 221 0.9 4.3 0.00 0.04 0.00 70 1010.9
20260901230830 91 224 1.7 5.2 0.00 0.04 0.00 69 1010.9
20260901230327 92 244 1.7 5.2 0.00 0.04 0.00 69 1010.9
20260901225826 92 221 1.7 4.3 0.00 0.04 0.00 69 1010.8
20260901225327 92 200 2.6 5.2 0.00 0.04 0.00 68 1010.8
20260901224827 92 234 2.6 7.0 0.00 0.04 0.00 68 1010.8
20260901224326 92 191 2.6 7.0 0.00 0.04 0.00 67 1010.9
20260901223825 92 236 0.9 7.0 0.00 0.04 0.00 66 1010.9
20260901223324 92 225 1.7 7.0 0.00 0.04 0.00 67 1010.9
20260901222828 92 221 2.6 7.0 0.00 0.04 0.00 65 1010.9
20260901222325 93 234 3.5 7.8 0.00 0.04 0.00 67 1010.9
20260901221824 93 240 2.6 7.8 0.00 0.04 0.00 67 1010.9
20260901221326 93 238 2.6 7.8 0.00 0.04 0.00 65 1010.8
20260901220820 93 228 2.6 7.8 0.00 0.04 0.00 65 1010.8
20260901220308 93 180 1.7 7.8 0.00 0.04 0.00 66 1010.8
20260901215756 93 263 2.6 7.8 0.00 0.04 0.00 65 1010.9
20260901215244 93 242 2.6 6.1 0.00 0.04 0.00 66 1010.9
20260901214736 93 232 2.6 6.1 0.00 0.04 0.00 67 1010.9
20260901214229 93 215 1.7 6.1 0.00 0.04 0.00 67 1010.9
20260901213722 93 173 1.7 6.1 0.00 0.04 0.00 67 1010.9
20260901213212 93 186 2.6 7.0 0.00 0.04 0.00 67 1010.9
20260901212710 93 230 2.6 7.0 0.00 0.04 0.00 67 1010.9
20260901212205 93 217 2.6 6.1 0.00 0.04 0.00 66 1010.9
20260901211658 93 228 2.6 5.2 0.00 0.04 0.00 65 1010.9
20260901211152 93 247 3.5 6.1 0.00 0.04 0.00 65 1010.9
20260901210646 93 227 3.5 7.8 0.00 0.04 0.00 65 1010.9
20260901210140 93 217 3.5 7.8 0.00 0.04 0.00 66 1010.9
20260901205851 93 206 2.6 7.8 0.00 0.04 0.00 65 1011.0
20260901205129 94 211 1.7 7.0 0.00 0.04 0.00 65 1011.0
20260901204623 93 182 2.6 7.0 0.00 0.04 0.00 66 1011.0
20260901204118 93 215 3.5 8.7 0.00 0.04 0.00 66 1011.1
20260901203611 93 225 2.6 8.7 0.00 0.04 0.00 66 1011.1
20260901203101 93 231 3.5 9.6 0.00 0.04 0.00 67 1011.1
20260901202559 93 224 3.5 9.6 0.00 0.04 0.00 66 1011.1
20260901202054 93 311 3.5 9.6 0.00 0.04 0.00 66 1011.1
20260901201546 93 165 3.5 9.6 0.00 0.04 0.00 66 1011.1
20260901201040 93 199 2.6 7.0 0.00 0.04 0.00 64 1011.2
20260901200534 93 200 2.6 7.0 0.00 0.04 0.00 66 1011.2
20260901200028 93 159 3.5 7.8 0.00 0.04 0.00 67 1011.2
20260901195517 92 208 4.3 9.6 0.00 0.04 0.00 66 1011.3
20260901195016 92 252 4.3 9.6 0.00 0.04 0.00 67 1011.3
20260901194512 93 214 3.5 9.6 0.00 0.04 0.00 67 1011.3
20260901194006 93 290 2.6 7.8 0.00 0.04 0.00 68 1011.4
20260901193458 92 190 2.6 7.8 0.00 0.04 0.00 67 1011.4
20260901192947 92 240 2.6 7.0 0.00 0.04 0.00 67 1011.4
20260901192446 92 186 3.5 7.0 0.00 0.04 0.00 67 1011.4
20260901191941 92 201 3.5 7.8 0.00 0.04 0.00 67 1011.4
20260901191434 91 223 3.5 7.8 0.00 0.04 0.00 68 1011.6
20260901191202 91 233 3.5 7.8 0.00 0.04 0.00 68 1011.6
20260901190423 91 247 3.5 7.8 0.00 0.04 0.00 69 1011.6
20260901190135 91 239 4.3 8.7 0.00 0.04 0.00 70 1011.7
20260901185407 90 243 5.2 8.7 0.00 0.04 0.00 70 1011.7
20260901184905 90 228 4.3 8.7 0.00 0.04 0.00 69 1011.7
20260901184359 90 210 4.3 8.7 0.00 0.04 0.00 68 1011.8
20260901183852 90 203 3.5 7.8 0.00 0.04 0.00 69 1011.8
20260901183350 90 236 3.5 7.0 0.00 0.04 0.00 71 1011.8
20260901183112 90 207 3.5 7.0 0.00 0.04 0.00 71 1011.8
20260901182350 90 232 3.5 7.0 0.00 0.04 0.00 70 1011.8
20260901181850 90 234 3.5 9.6 0.00 0.04 0.00 71 1011.8
20260901181349 89 244 3.5 9.6 0.00 0.04 0.00 72 1011.8
20260901180854 89 231 3.5 9.6 0.00 0.04 0.00 71 1011.8
20260901180350 89 199 4.3 9.6 0.00 0.04 0.00 72 1011.8
20260901175850 89 220 4.3 8.7 0.00 0.04 0.00 72 1011.9
20260901175351 89 246 3.5 8.7 0.00 0.04 0.00 72 1011.9
20260901174845 88 203 3.5 8.7 0.00 0.04 0.00 73 1011.9
20260901174333 88 237 4.3 8.7 0.00 0.04 0.00 74 1011.9
20260901173822 87 205 4.3 8.7 0.00 0.04 0.00 73 1011.9
20260901173314 88 262 3.5 7.8 0.00 0.04 0.00 73 1011.9
20260901172807 88 233 3.5 7.8 0.00 0.04 0.00 72 1011.9
20260901172304 87 168 3.5 7.0 0.00 0.04 0.00 75 1011.9
20260901172013 87 225 3.5 7.8 0.00 0.04 0.00 75 1011.9
20260901171507 87 213 3.5 7.8 0.00 0.04 0.00 74 1012.1
20260901170954 87 229 3.5 7.8 0.00 0.04 0.00 74 1012.1
20260901170238 87 233 3.5 7.8 0.00 0.04 0.00 73 1012.1
20260901165731 87 238 3.5 7.0 0.00 0.04 0.00 74 1012.2
20260901165226 87 167 2.6 6.1 0.00 0.04 0.00 74 1012.2
20260901164716 86 228 3.5 7.8 0.00 0.04 0.00 74 1012.2
20260901164701 86 188 3.5 7.8 0.00 0.04 0.00 74 1012.4
20260901163708 86 233 3.5 7.8 0.00 0.04 0.00 75 1012.4
20260901163201 86 237 2.6 7.0 0.00 0.04 0.00 75 1012.4
20260901162658 86 217 2.6 6.1 0.00 0.04 0.00 75 1012.3
20260901162146 85 246 2.6 7.0 0.00 0.04 0.00 75 1012.3
20260901161640 85 200 2.6 7.8 0.00 0.04 0.00 75 1012.3
20260901161138 85 230 2.6 7.8 0.00 0.04 0.00 77 1012.3
20260901160631 84 219 3.5 7.0 0.00 0.04 0.00 76 1012.3
20260901160125 84 167 2.6 7.0 0.00 0.04 0.00 76 1012.3
20260901155619 84 209 2.6 6.1 0.00 0.04 0.00 76 1012.3
20260901155112 84 231 2.6 7.0 0.00 0.04 0.00 78 1012.3
20260901154602 83 223 2.6 7.0 0.00 0.04 0.00 77 1012.3
20260901154101 83 198 1.7 3.5 0.00 0.04 0.00 78 1012.2
20260901154043 82 204 1.7 4.3 0.00 0.04 0.00 79 1012.2
20260901153050 82 236 2.6 7.0 0.00 0.04 0.00 80 1012.2
20260901152538 82 194 2.6 7.0 0.00 0.04 0.00 78 1012.1
20260901152037 82 171 1.7 5.2 0.00 0.04 0.00 79 1012.1
20260901152021 81 178 2.6 7.0 0.00 0.04 0.00 81 1012.1
20260901151249 81 231 3.5 7.0 0.00 0.04 0.00 80 1012.0
20260901150518 80 248 3.5 7.0 0.00 0.04 0.00 80 1012.0
20260901150014 80 220 2.6 6.1 0.00 0.04 0.00 82 1012.0
20260901145508 80 229 2.6 7.0 0.00 0.04 0.00 81 1012.0
20260901145002 80 223 2.6 7.0 0.00 0.04 0.00 81 1012.0
20260901144450 80 231 2.6 6.1 0.00 0.04 0.00 81 1012.0
20260901143950 80 220 2.6 5.2 0.00 0.04 0.00 81 1012.0
20260901143443 79 223 3.5 6.1 0.00 0.04 0.00 83 1012.0
20260901142936 79 234 2.6 7.0 0.00 0.04 0.00 82 1012.0
20260901142431 78 223 2.6 7.0 0.00 0.04 0.00 83 1012.0
20260901141925 78 202 2.6 6.1 0.00 0.04 0.00 84 1012.0
20260901141511 78 223 2.6 7.8 0.00 0.04 0.00 84 1011.9
20260901140423 77 235 1.7 5.2 0.00 0.04 0.00 85 1011.9
20260901140405 76 215 2.6 5.2 0.00 0.04 0.00 86 1012.2
20260901135423 76 219 3.5 7.0 0.00 0.04 0.00 86 1012.2
20260901134923 76 231 2.6 7.0 0.00 0.04 0.00 87 1012.2
20260901134422 75 236 2.6 6.1 0.00 0.04 0.00 88 1012.2
20260901133926 75 241 2.6 6.1 0.00 0.04 0.00 89 1012.2
20260901133425 74 217 1.7 4.3 0.00 0.04 0.00 89 1012.2
20260901132920 74 186 1.7 4.3 0.00 0.04 0.00 89 1012.4
20260901132404 74 229 1.7 3.5 0.00 0.04 0.00 89 1012.4
20260901131852 74 223 1.7 3.5 0.00 0.04 0.00 89 1012.4
20260901131347 74 227 2.6 6.1 0.00 0.04 0.00 89 1012.4
20260901131106 74 220 2.6 6.1 0.00 0.04 0.00 89 1012.4
20260901130330 74 233 2.6 5.2 0.00 0.04 0.00 89 1012.4
20260901125829 74 223 1.7 5.2 0.00 0.04 0.00 89 1012.3
20260901125543 74 235 2.6 4.3 0.00 0.04 0.00 89 1012.3
20260901124818 74 194 2.6 5.2 0.00 0.04 0.00 89 1012.3
20260901124537 74 221 2.6 6.1 0.00 0.04 0.00 89 1012.2
20260901123805 73 247 2.6 6.1 0.00 0.04 0.00 90 1012.2
20260901123300 73 197 2.6 6.1 0.00 0.04 0.00 90 1012.2
20260901122748 73 227 2.6 5.2 0.00 0.04 0.00 90 1011.9
20260901122246 73 279 1.7 3.5 0.00 0.04 0.00 90 1011.9
20260901121740 73 180 0.9 3.5 0.00 0.04 0.00 90 1011.9
20260901121234 73 186 1.7 5.2 0.00 0.04 0.00 90 1011.9
20260901120728 73 219 1.7 5.2 0.00 0.04 0.00 90 1011.9
20260901120218 73 215 1.7 4.3 0.00 0.04 0.00 90 1011.9
20260901115716 73 225 1.7 4.3 0.00 0.04 0.00 91 1011.6
20260901115212 73 221 1.7 5.2 0.00 0.04 0.00 91 1011.6
20260901114930 73 216 1.7 5.2 0.00 0.04 0.00 91 1011.6
20260901114159 73 185 1.7 3.5 0.00 0.04 0.00 91 1011.6
20260901113652 73 163 1.7 4.3 0.00 0.04 0.00 91 1011.6